Tracking 30261 objects as of 18-Feb-2025
HD Live streaming from Space Station
objects crossing your sky now

STARLINK-5201

Track STARLINK-5201 now!
10-day predictions
STARLINK-5201 is classified as:


NORAD ID: 54076
Int'l Code: 2022-136AB
Perigee: 545.8 km
Apogee: 548.0 km
Inclination: 53.2 °
Period: 95.4 minutes
Semi major axis: 6917 km
RCS: Unknown
Launch date: October 20, 2022
Source: United States (US)
Launch site: AIR FORCE EASTERN TEST RANGE (AFETR)
Your satellite tracking list
Your tracking list is empty




NASA's NSSDC Master Catalog

Two Line Element Set (TLE):
1 54076U 22136AB  25048.91927421  .00000435  00000-0  45442-4 0  9995
2 54076  53.2165 271.6257 0001566  87.7262 272.3910 15.08840342128758
Source of the keplerian elements: AFSPC